Hourly Data Report for June 16, 2021

ATIKOKAN (AUT)
ONTARIO
Current Station Operator: ECCC - MSC

48°45'40.000" N
91°37'41.000" W
389.30 m
6020LPQ
71747
WCH

Download Data

Hourly Data (June 2021)
Hourly Data Report for June 16, 2021
TIME
LST
Temp Definition
°C
Dew Point Definition
°C
Rel Hum Definition
%
Precip. Amount Definition
mm

Wind Dir Definition
10's deg

Wind Spd Definition
km/h
Visibility Definition
km
Stn Press Definition
kPa
Hmdx Definition


Wind Chill Definition


Weather Definition


00:00 10.4 9.9 97 0.0   0   97.47     LegendNANA
01:00 9.6 9.2 98 0.0 4 2   97.50     LegendNANA
02:00 9.1 8.8 98 0.0 7 1   97.48     LegendNANA
03:00 8.6 8.3 98 0.0 7 2   97.50     LegendNANA
04:00 8.2 8.0 98 0.0   0   97.50     LegendNANA
05:00 8.9 8.7 99 0.0 8 1   97.47     LegendNANA
06:00 12.3 12.2 99 0.0 8 1   97.46     LegendNANA
07:00 16.6 10.9 69 0.0 19 3   97.45     LegendNANA
08:00 19.0 9.5 54 0.0 21 7   97.37     LegendNANA
09:00 20.8 11.0 53 0.0 23 7   97.35     LegendNANA
10:00 21.9 10.8 49 0.0 23 10   97.26     LegendNANA
11:00 23.2 11.2 47 0.0 20 11   97.25 25   LegendNANA
12:00 23.7 11.0 45 0.0 21 11   97.19 25   LegendNANA
13:00 24.6 11.3 43 0.0 23 9   97.09 27   LegendNANA
14:00 25.2 11.5 42 0.0 18 12   96.96 27   LegendNANA
15:00 25.6 10.5 39 0.0 16 12   96.83 27   LegendNANA
16:00 25.8 9.5 36 0.0 19 13   96.81 27   LegendNANA
17:00 25.3 9.5 37 0.0 21 12   96.79 26   LegendNANA
18:00 25.5 9.3 36 0.0 20 12   96.67 26   LegendNANA
19:00 22.8 10.0 44 0.0 21 6   96.69     LegendNANA
20:00 20.3 10.3 53 0.0 16 5   96.66     LegendNANA
21:00 18.7 13.3 71 0.0 22 5   96.56     LegendNANA
22:00 16.7 12.5 76 0.0 22 2   96.48     LegendNANA
23:00 15.8 12.4 81 0.0 5 2   96.46     LegendNANA

Notes on Data Quality.

Legend

  • E = Estimated
  • M = Missing
  • NA = Not Available*
  • [empty] = Indicates an unobserved value
Date modified: